[Iaude] MPEC A05: 2005 VS [a=1.38,e=0.29,i=10.1,H=22.2]

mpec at mpcdb1.cfa.harvard.edu mpec at mpcdb1.cfa.harvard.edu
Tue Jan 1 15:49:17 EST 2019


M.P.E.C. 2019-A05                                Issued 2019 Jan. 1, 20:44 UT
 
     The Minor Planet Electronic Circulars contain information on unusual
         minor planets and routine data on comets.  They are published
    on behalf of Division F of the International Astronomical Union by the
          Minor Planet Center, Smithsonian Astrophysical Observatory,
                          Cambridge, MA 02138, U.S.A.

             Prepared using the Tamkin Foundation Computer Network

                              MPC at CFA.HARVARD.EDU
            URL https://www.minorplanetcenter.net/    ISSN 1523-6714


                                    2005 VS
 
                           Revision to MPEC 2005-V39
 
Additional Observations:
     K05V00S |C2018 12 31.23206 10 01 33.67 -13 26 53.0          23.1 GVEA005807
     K05V00S |C2018 12 31.25058 10 01 32.84 -13 27 07.2          23.0 GVEA005807
     K05V00S |C2018 12 31.26875 10 01 32.07 -13 27 21.4          23.0 GVEA005807
     K05V00S |C2019 01 01.21171 10 00 53.21 -13 39 06.5          23.1 GVEA005807
     K05V00S |C2019 01 01.22700 10 00 52.48 -13 39 18.1          23.1 GVEA005807
     K05V00S |C2019 01 01.24206 10 00 51.74 -13 39 29.2          23.0 GVEA005807
 
Observer details:
807 Cerro Tololo Observatory, La Serena.  Observers T. Linder, R. Holmes.
    1.00-m f/10.0 astrograph + CCD.
 
First and last observations above in comparison with prediction:
Residuals in seconds of arc (or two decimals in degrees), reference and Delta-T
181231 807 0.11- 0.00-    190101 807 0.11- 0.00-    MPO 97959   +0.11 day
 
Orbital elements:
2005 VS                                                  Earth MOID = 0.0173 AU
Epoch 2019 Apr. 27.0 TT = JDT 2458600.5                 MPC
M 138.98284              (2000.0)            P               Q
n   0.61055176     Peri.  149.46190     +0.94821389     -0.28945148
a   1.3761139      Node   227.96265     +0.24402400     +0.92744625
e   0.2877866      Incl.   10.14327     +0.20332908     +0.23677267
P   1.61           H   22.2           G   0.15           U   1
Residuals in seconds of arc
051103 703  0.0   0.2+    051104 G96  0.0   0.5-    051112 J95  0.2+  0.1+
051103 703  0.8-  0.3+    051104 G96  0.2-  0.5-    051112 J95  0.0   0.2-
051103 703  0.2-  0.1+    051104 G96  0.3-  0.4-    051112 J95  0.0   0.0
051103 703  0.3+  0.5+    051104 G96  0.0   0.4-    051130 448  0.5+  0.1-
051103 703  0.8-  0.0     051105 J95  0.0   0.0     051130 448 (0.8+  2.0-)
051103 703  0.2-  0.0     051105 J95  0.2-  0.1-    051130 448  0.7+  0.2-
051103 703  0.9-  0.2-    051105 J95  0.1+  0.1-    051201 703  0.2+  1.2+
051104 J95  0.1+  0.1+    051105 G88  0.1-  0.3-    051201 703  0.5-  0.2+
051104 J95  0.2-  0.1+    051105 G88  0.3-  0.2+    051201 703  0.3-  0.8+
051104 J95  0.1+  0.1-    051106 A50  0.5+  0.6+    051221 291  0.2-  0.2-
051104 854  0.2-  0.3-    051106 A50  0.1+  0.8+    051221 291  0.3-  0.2-
051104 854  0.8-  0.2-    051106 A50  0.5+  0.2+    051221 291  0.0   0.1-
051104 854  0.1+  0.4-    051106 A50  0.5+  0.6+    060110 291  0.2+  0.0
051104 H06  1.4+  0.0     051106 A50  0.3+  0.1-    060110 291  0.2-  0.3+
051104 H06  1.2+  0.1-    051106 G88  0.1+  0.3+    060110 291  0.2+  0.1+
051104 703  0.4-  0.0     051106 G88  0.1-  0.2+    181231 807  0.5-  0.1-
051104 703  0.3+  0.2+    051106 G88  0.1+  0.3+    181231 807  0.6-  0.1+
051104 703  0.3-  0.8-    051109 H36  0.6+  0.4-    181231 807  0.1+  0.1-
051104 673  0.0   0.4+    051109 H36  0.1+  0.5+    190101 807  0.4+  0.2-
051104 703  0.6+  1.5+    051109 H36  0.1-  0.8-    190101 807  0.4+  0.3-
051104 673  0.2-  0.0     051109 H36  0.0   0.3-    190101 807  0.2+  0.2-
051104 673  0.1-  0.0     051109 H36  1.3-  1.3-
051104 673  0.2+  0.1+    051109 H36  0.5+  0.0

Ephemeris:
2005 VS                  a,e,i = 1.38, 0.29, 10                  q = 0.9801
Date    TT    R. A. (2000) Decl.     Delta      r     Elong.  Phase     V
2018 12 02    09 56 26.2 -04 27 05   0.5956  1.2072    96.4    54.3    23.5
...
2018 12 17    10 04 51.8 -09 40 02   0.5727  1.2731   106.7    47.8    23.3
...
2018 12 25    10 04 28.4 -11 58 04   0.5585  1.3082   113.2    43.7    23.2
...
2018 12 31    10 01 42.2 -13 23 59   0.5480  1.3343   118.4    40.4    23.1
2019 01 01    10 01 01.6 -13 36 35   0.5463  1.3386   119.3    39.8    23.1
2019 01 02    10 00 17.3 -13 48 38   0.5447  1.3429   120.3    39.2    23.1
...
2019 01 08    09 54 34.8 -14 48 35   0.5359  1.3686   126.0    35.6    23.0
...
2019 01 16    09 43 48.8 -15 30 51   0.5282  1.4021   133.8    30.4    22.9
...
2019 01 31    09 17 15.9 -14 36 54   0.5334  1.4623   147.2    21.4    22.7

A. U. Tomatic                (C) Copyright 2019 MPC           M.P.E.C. 2019-A05



More information about the Iaude mailing list